Regional Weather Roundup
Issued by NWS Sioux Falls, SD

Home | Current Version | Previous Version | Text Only | Print | Product List | Glossary On
Versions: 1 2 3 4 5 6 7 8 9 10 11 12 13 14 15 16 17 18 19 20 21 22 23 24 25 26 27 28 29 30 31 32 33 34 35 36 37 38 39 40 41 42 43 44 45 46 47 48 49 50
000
ASUS43 KFSD 210302
RWRFSD

WEATHER ROUNDUP FOR SE SOUTH DAKOTA/SW MINNESOTA/NW IOWA
NATIONAL WEATHER SERVICE SIOUX FALLS SD
900 PM CST FRI JAN 20 2017

NOTE: "FAIR" INDICATES FEW OR NO CLOUDS BELOW 12,000 FEET WITH NO
SIGNIFICANT WEATHER AND OR OBSTRUCTIONS TO VISIBILITY.


SDZ038>040-050-052>070-210400-
SOUTHEAST SOUTH DAKOTA

CITY           SKY/WX    TMP DP  RH WIND       PRES   REMARKS
BROOKINGS      CLOUDY    36  36 100 SE16      29.40S FOG
CHAMBERLAIN    CLEAR     30  29  97 E5        29.35S WCI  25
HURON          CLOUDY    38  38 100 S14G23    29.35S
MADISON        CLOUDY    36  36 100 S9          N/A
MITCHELL       CLOUDY    40  39  97 S14       29.38S
SIOUX FALLS    FOG       39  39 100 S10       29.43S VSB 1
WINNER         CLOUDY    33  29  85 W3        29.33F
YANKTON        CLOUDY    39  37  93 E5        29.41S VSB 3/4
$$

MNZ071-072-080-081-089-090-097-098-210400-
SOUTHWEST MINNESOTA

CITY           SKY/WX    TMP DP  RH WIND       PRES   REMARKS
FAIRMONT       LGT RAIN  34  34 100 SE7       29.51F VSB 3/4 WCI  28
JACKSON        FOG       32  32 100 E9        29.48F VSB 1/2 WCI  24
LUVERNE        FOG       36  34  93 SE5       29.44F VSB 1
MARSHALL       CLOUDY    35  35 100 SE12      29.47F FOG     WCI  27
MONTEVIDEO     CLOUDY    34  34 100 S12       29.49F FOG     WCI  25
PIPESTONE      FOG       36  36 100 SE7       29.43F VSB 1/4
REDWOOD FALLS  FOG       35  33  92 SE10      29.50F VSB 1   WCI  27
TRACY          CLOUDY    37  37 100 SE7       29.47F FOG
WINDOM         CLOUDY    36  36 100 E6        29.47F FOG
WORTHINGTON    FOG       34  34 100 E8        29.46F VSB 1/2 WCI  27
$$

IAZ001>003-012>014-020>022-031-032-NEZ013-014-SDZ071-210400-
NORTHWEST IOWA

CITY           SKY/WX    TMP DP  RH WIND       PRES   REMARKS
CHEROKEE       DRIZZLE   37  37 100 E6        29.46F
DENISON        MIX PCPN  39  39 100 SE9       29.43F
ESTHERVILLE    FOG       33  33 100 E8        29.48F VSB 1/2 WCI  26
LE MARS        CLOUDY    39  39 100 SE10      29.45S
ORANGE CITY    FOG       37  37 100 SE6       29.45R VSB 1/2
SHELDON        CLOUDY    36  36 100 SE9       29.44S FOG
SIOUX CITY     CLOUDY    40  39  97 SE7       29.44S
SPENCER        CLOUDY    36  36 100 E6        29.48S FOG
STORM LAKE     FOG       36  36 100 SE10      29.46F VSB<1/4
$$

ABBREVIATIONS USED IN REMARKS
   TC - TEMPERATURE IN CELSIUS
  WCI - WIND CHILL INDEX
   HX - HEAT INDEX
  VSB - VISIBILITY





USA.gov is the U.S. government's official web portal to all federal, state and local government web resources and services.